Weather History for KADU - May, 2013

Change the Weather History Date:

Sunday, May 19, 2013

  Actual Average (KAIO) Record (KAIO)
Temperature  
Mean Temperature 72 °F -  
Max Temperature 84 °F 70 °F - (-1)
Min Temperature 59 °F 50 °F - (-1)
Cooling Degree Days 7    
Growing Degree Days 22 (Base 50)    
Moisture  
Dew Point 58 °F    
Average Humidity 71    
Maximum Humidity 83    
Minimum Humidity 37    
Precipitation  
Precipitation 0.00 in - - ()
Sea Level Pressure  
Sea Level Pressure 29.67 in    
Wind  
Wind Speed 8 mph (South)    
Max Wind Speed 28 mph    
Max Gust Speed 34 mph    
Visibility 10 miles    
Events      
Averages and records for this station are not official NWS values.
T = Trace of Precipitation, MM = Missing Value Source: NWS Daily Summary

Daily Weather History Graph

Daily Weather History Graph

Search for Another Location

Airport or City:

Trip Planner

Search our weather history database for the weather conditions in past years. The results will help you decide how hot, cold, wet, or windy it might be!

Date:

Astronomy

May. 19, 2013 Rise Set
Actual Time 5:56 AM CDT 8:36 PM CDT
Civil Twilight 5:23 AM CDT 9:09 PM CDT
Nautical Twilight 4:43 AM CDT 9:49 PM CDT
Astronomical Twilight 3:57 AM CDT 10:35 PM CDT
Moon 2:37 PM CDT (5/19) 2:25 AM CDT (5/19)
Length of Visible Light 15h 45m
Length of Day
14h 40m
Waxing Gibbous, 65% of the Moon is Illuminated
May 19
Waxing Gibbous
May 24
Full
May 31
Last Quarter
Jun 8
New
Jun 16
First Quarter

Hourly Weather History & Observations

Time (CDT) Temp. Heat Index Dew Point Humidity Pressure Visibility Wind Dir Wind Speed Gust Speed Precip Events Conditions
12:15 AM 73.4 °F - 60.8 °F 65% 29.78 in 10.0 mi SSE 9.2 mph - N/A   Mostly Cloudy
12:35 AM 73.4 °F - 60.8 °F 65% 29.77 in 10.0 mi SSE 6.9 mph - N/A   Scattered Clouds
1:15 AM 71.6 °F - 62.6 °F 73% 29.76 in 10.0 mi SE 10.4 mph - N/A   Clear
1:35 AM 71.6 °F - 62.6 °F 73% 29.75 in 10.0 mi SE 9.2 mph - N/A   Clear
1:55 AM 73.4 °F - 62.6 °F 69% 29.75 in 10.0 mi SSE 11.5 mph - N/A   Clear
2:15 AM 73.4 °F - 62.6 °F 69% 29.78 in 7.0 mi South 27.6 mph 34.5 mph N/A   Mostly Cloudy
2:35 AM 64.4 °F - 57.2 °F 77% 29.78 in 10.0 mi West 6.9 mph 21.9 mph N/A   Scattered Clouds
2:55 AM 64.4 °F - 55.4 °F 73% 29.78 in 10.0 mi Calm Calm - N/A   Clear
3:15 AM 64.4 °F - 55.4 °F 73% 29.75 in 10.0 mi Calm Calm - N/A   Clear
3:35 AM 62.6 °F - 57.2 °F 82% 29.74 in 10.0 mi Calm Calm - N/A   Clear
3:55 AM 62.6 °F - 57.2 °F 82% 29.69 in 10.0 mi Calm Calm - N/A   Mostly Cloudy
4:15 AM 64.4 °F - 57.2 °F 77% 29.67 in 10.0 mi Calm Calm - N/A   Scattered Clouds
4:35 AM 62.6 °F - 55.4 °F 77% 29.68 in 10.0 mi Calm Calm - N/A   Clear
4:55 AM 62.6 °F - 55.4 °F 77% 29.70 in 10.0 mi West 3.5 mph - N/A   Clear
5:15 AM 60.8 °F - 55.4 °F 82% 29.68 in 10.0 mi SSW 3.5 mph - N/A   Clear
5:35 AM 62.6 °F - 55.4 °F 77% 29.70 in 10.0 mi Calm Calm - N/A   Clear
5:55 AM 62.6 °F - 55.4 °F 77% 29.70 in 10.0 mi SSE 8.1 mph - N/A   Clear
6:15 AM 62.6 °F - 55.4 °F 77% 29.70 in 10.0 mi SSE 4.6 mph - N/A   Clear
6:35 AM 62.6 °F - 55.4 °F 77% 29.72 in 10.0 mi SSE 9.2 mph - N/A   Clear
7:15 AM 64.4 °F - 57.2 °F 77% 29.72 in 10.0 mi SSE 9.2 mph - N/A   Clear
7:35 AM 64.4 °F - 57.2 °F 77% 29.67 in 10.0 mi Calm Calm - N/A   Clear
7:55 AM 66.2 °F - 57.2 °F 73% 29.67 in 10.0 mi SSE 5.8 mph - N/A   Clear
8:15 AM 66.2 °F - 59.0 °F 78% 29.67 in 10.0 mi SSE 3.5 mph - N/A   Clear
8:35 AM 66.2 °F - 59.0 °F 78% 29.70 in 10.0 mi SSE 9.2 mph - N/A   Scattered Clouds
8:55 AM 66.2 °F - 57.2 °F 73% 29.75 in 10.0 mi South 12.7 mph - N/A   Mostly Cloudy
9:15 AM 66.2 °F - 59.0 °F 78% 29.75 in 10.0 mi South 15.0 mph - N/A   Scattered Clouds
9:55 AM 66.2 °F - 60.8 °F 83% 29.72 in 10.0 mi South 10.4 mph - N/A   Clear
10:15 AM 68.0 °F - 60.8 °F 78% 29.70 in 10.0 mi South 8.1 mph - N/A   Clear
10:35 AM 68.0 °F - 60.8 °F 78% 29.70 in 10.0 mi South 10.4 mph - N/A   Clear
10:55 AM 69.8 °F - 60.8 °F 73% 29.70 in 10.0 mi South 10.4 mph - N/A   Scattered Clouds
11:15 AM 68.0 °F - 60.8 °F 78% 29.70 in 10.0 mi SSW 6.9 mph - N/A   Mostly Cloudy
11:35 AM 69.8 °F - 60.8 °F 73% 29.70 in 10.0 mi South 6.9 mph - N/A   Mostly Cloudy
11:55 AM 69.8 °F - 60.8 °F 73% 29.71 in 7.0 mi South 12.7 mph - N/A   Scattered Clouds
12:15 PM 68.0 °F - 60.8 °F 78% 29.69 in 10.0 mi South 9.2 mph - N/A   Scattered Clouds
12:35 PM 71.6 °F - 64.4 °F 78% 29.69 in 10.0 mi South 13.8 mph 18.4 mph N/A   Clear
12:55 PM 71.6 °F - 62.6 °F 73% 29.67 in 10.0 mi South 8.1 mph - N/A   Clear
1:15 PM 73.4 °F - 62.6 °F 69% 29.67 in 10.0 mi South 12.7 mph 16.1 mph N/A   Clear
1:35 PM 75.2 °F - 62.6 °F 65% 29.67 in 10.0 mi South 12.7 mph 19.6 mph N/A   Clear
2:15 PM 78.8 °F - 57.2 °F 47% 29.66 in 10.0 mi SSE 9.2 mph - N/A   Clear
2:35 PM 80.6 °F 80.8 °F 57.2 °F 45% 29.65 in 10.0 mi SSE 6.9 mph - N/A   Clear
3:15 PM 82.4 °F 82.0 °F 57.2 °F 42% 29.63 in 10.0 mi South 10.4 mph 20.7 mph N/A   Clear
3:35 PM 84.2 °F 83.0 °F 55.4 °F 37% 29.63 in 10.0 mi South 17.3 mph 25.3 mph N/A   Scattered Clouds
3:55 PM 82.4 °F 81.7 °F 55.4 °F 39% 29.63 in 10.0 mi South 16.1 mph 21.9 mph N/A   Clear
4:15 PM 82.4 °F 81.4 °F 53.6 °F 37% 29.62 in 10.0 mi South 17.3 mph 23.0 mph N/A   Scattered Clouds
4:35 PM 82.4 °F 81.7 °F 55.4 °F 39% 29.61 in 10.0 mi South 15.0 mph 23.0 mph N/A   Scattered Clouds
4:55 PM 82.4 °F 82.5 °F 59.0 °F 45% 29.62 in 10.0 mi WSW 19.6 mph 27.6 mph N/A   Scattered Clouds
5:15 PM 71.6 °F - 55.4 °F 57% 29.61 in 10.0 mi WNW 17.3 mph 33.4 mph N/A   Scattered Clouds
5:35 PM 68.0 °F - 55.4 °F 64% 29.64 in 10.0 mi NNW 4.6 mph - N/A   Scattered Clouds
5:55 PM 66.2 °F - 55.4 °F 68% 29.66 in 7.0 mi WNW 3.5 mph - N/A   Overcast
6:15 PM 64.4 °F - 55.4 °F 73% 29.64 in 7.0 mi SW 3.5 mph - N/A   Overcast
6:35 PM 64.4 °F - 57.2 °F 77% 29.60 in 10.0 mi Calm Calm - N/A   Overcast
6:55 PM 64.4 °F - 57.2 °F 77% 29.59 in 7.0 mi East 10.4 mph - N/A   Overcast
7:15 PM 66.2 °F - 59.0 °F 78% 29.55 in 10.0 mi ESE 11.5 mph 16.1 mph N/A   Scattered Clouds
7:35 PM 66.2 °F - 57.2 °F 73% 29.59 in 10.0 mi South 8.1 mph - N/A   Clear
7:55 PM 66.2 °F - 57.2 °F 73% 29.56 in 10.0 mi Calm Calm - N/A   Scattered Clouds
8:15 PM 66.2 °F - 57.2 °F 73% 29.61 in 10.0 mi South 15.0 mph 19.6 mph N/A   Scattered Clouds
8:35 PM 64.4 °F - 57.2 °F 77% 29.63 in 7.0 mi South 25.3 mph 33.4 mph N/A   Mostly Cloudy
8:55 PM 62.6 °F - 55.4 °F 77% 29.59 in 10.0 mi South 16.1 mph 25.3 mph N/A   Overcast
9:15 PM 60.8 °F - 55.4 °F 82% 29.54 in 10.0 mi SSE 9.2 mph - N/A   Mostly Cloudy
9:35 PM 60.8 °F - 53.6 °F 77% 29.47 in 10.0 mi ESE 4.6 mph - N/A   Scattered Clouds
9:55 PM 60.8 °F - 55.4 °F 82% 29.50 in 10.0 mi NW 4.6 mph - N/A   Scattered Clouds
10:15 PM 62.6 °F - 55.4 °F 77% 29.61 in 10.0 mi SSW 8.1 mph - N/A   Mostly Cloudy
10:35 PM 62.6 °F - 55.4 °F 77% 29.65 in 10.0 mi WSW 6.9 mph - N/A   Overcast
11:15 PM 60.8 °F - 55.4 °F 82% 29.65 in 7.0 mi Calm Calm - N/A   Overcast
11:35 PM 60.8 °F - 55.4 °F 82% 29.63 in 10.0 mi Calm Calm - N/A   Mostly Cloudy
11:55 PM 59.0 °F - 53.6 °F 82% 29.61 in 10.0 mi Calm Calm - N/A   Scattered Clouds